CZ-4 DEB

Satellite information

Favourite Embed

Satellite Type and Status

DEBRISIN ORBIT

Key statistics

Satellite CZ-4 DEB at a glance.

Uptime

12829

Days in orbit

Revolutions

≈ 14.3

Per day

Orbit

SSO

Sun Synchronous Orbit

Inclination

98.7

Latest

Satellite identification and parameters

Extended collection of information and parameters for CZ-4 DEB.

Object identification

Identified? True

Debris? True

Object name: CZ-4 DEB

International designator: 1990-081Q

Object number (NORAD): 20852

Object ID (CCSDS): 20852

Country: PEOPLES REPUBLIC OF CHINA (PRC)

Current information (Y/N): Y

RCS size: MEDIUM

Orbital parameters

Period: 100.921 minutes

Inclination: 98.6803 deg

SMA: 7180.401 km

Apoapsis: 813.726 km

Periapsis: 790.805 km

RAAN: 277.066 deg

Eccentricy: 0.00159609

Argument of periapsis: 205.7646 deg

Mean anomaly: 154.2741 deg

Mean motion: 14.26854697 rev/day

Mean motion (dot): 0.00002304 rev/day2

B* drag term: 0.0009665901 1/REarth

Two-line elements (TLE)

Creation date: Oct. 18, 2025, 2:17 a.m.

Reference frame: TEME

Reference center: EARTH

Epoch: Oct. 17, 2025, 9:59 p.m. UTC

TLE line 0: 0 CZ-4 DEB

TLE line 1: 1 20852U 90081Q 25290.91651624 .00002304 00000-0 96659-3 0 9994

TLE line 2: 2 20852 98.6803 277.0660 0015961 205.7646 154.2741 14.26854697811177

Live tracking on map

Real-time ground track for satellite CZ-4 DEB.

In-orbit conjunctions

A list of the most updated potential collisions computed for object CZ-4 DEB.

Target Orbit TCA Probability of collision Miss distance Type
COSMOS 1275 DEB LEO 2025-08-06 02:23:50 0.0001657765 367.0 (m) DEBRIS
CZ-6A DEB LEO 2025-06-09 01:53:21 0.0001140856 197.0 (m) DEBRIS
RESURS O1-N4 SSO 2025-02-25 22:27:45 0.0006226615 563.0 (m) PAYLOAD
CZ-6A DEB LEO 2025-01-24 17:55:33 0.0001273053 647.0 (m) DEBRIS
CZ-6A DEB LEO 2024-12-22 20:15:44 0.00022597 811.0 (m) DEBRIS

Associated space launch

Chinese polar orbiting meteorological satellite

CZ-4 DEB was lifted into orbit during the mission ‘Long March 4A | Feng Yun 1B’, on board a Long March 4A space rocket.

The launch took place on Sept. 3, 1990, 12:53 a.m. from Launch Complex 7.

For more information about the launch, click the button.

Launch to space Long March 4A | Feng Yun 1B
Long March 4A | Feng Yun 1B

Agency: N/A

Status: Launch Successful

Launch date: Sept. 3, 1990, 12:53 a.m. UTC

Rocket: Long March 4A

Launch pad: Launch Complex 7

Location: Taiyuan Satellite Launch Center, People's Republic of China

...

Latest news about this satellite

There are no fresh news available about this satellite. Check back as we update our databases every day.


Newsletter sign-up

Weekly statistics, charts and insights to help you stay on top of the space industry.